FW9372 Weather Reports


Display with metric or nautical units.
time (UTC)temp
F
wind
direction
speed
MPH
gust
MPH
rain 1hr
in
rain 24hr
in
rain mn
in
humidity
%
barometer
mb
20260901004617 77 0 0.0 0.0 0.00 0.00 0.00 91 1014.9
20260901003103 78 0 0.0 0.0 0.00 0.00 0.00 90 1014.8
20260901001605 79 0 0.0 0.0 0.00 0.00 0.00 89 1014.6
20260901000108 80 0 0.0 0.0 0.00 0.00 0.00 89 1014.6
20260831234635 81 0 0.0 0.0 0.00 0.00 0.00 87 1014.5
20260831233106 83 0 0.0 0.0 0.00 0.00 0.00 85 1014.5
20260831231603 86 0 0.0 0.0 0.00 0.00 0.00 82 1014.5
20260831230106 88 0 0.0 0.0 0.00 0.00 0.00 79 1014.8
20260831224606 89 0 0.0 0.0 0.00 0.00 0.00 76 1014.8
20260831223105 92 0 0.0 0.0 0.00 0.00 0.00 72 1014.9
20260831221605 93 0 0.0 0.0 0.00 0.00 0.00 67 1015.3
20260831220106 93 0 0.0 0.0 0.00 0.00 0.00 70 1015.4
20260831214623 94 0 0.0 0.0 0.00 0.00 0.00 61 1015.5
20260831213107 94 0 0.0 0.0 0.00 0.00 0.00 62 1015.5
20260831211605 94 0 0.0 0.0 0.00 0.00 0.00 66 1015.5
20260831210106 93 0 0.0 0.0 0.00 0.00 0.00 61 1015.7
20260831204609 93 0 0.0 0.0 0.00 0.00 0.00 61 1015.8
20260831203104 93 0 0.0 0.0 0.00 0.00 0.00 65 1015.9
20260831201620 93 0 0.0 0.0 0.00 0.00 0.00 63 1016.1
20260831200107 93 0 0.0 2.0 0.00 0.00 0.00 63 1016.2
20260831194605 92 0 0.0 1.0 0.00 0.00 0.00 62 1016.3
20260831193136 92 0 0.0 0.0 0.00 0.00 0.00 65 1016.5
20260831191607 92 0 0.0 0.0 0.00 0.00 0.00 65 1016.6
20260831190109 91 0 0.0 3.0 0.00 0.00 0.00 64 1016.7
20260831184608 92 0 0.0 3.0 0.00 0.00 0.00 67 1016.9
20260831183107 92 0 0.0 3.0 0.00 0.00 0.00 67 1017.1
20260831181614 90 0 0.0 1.0 0.00 0.00 0.00 66 1017.2
20260831180109 90 238 1.0 6.0 0.00 0.00 0.00 69 1017.4
20260831174606 90 0 0.0 1.0 0.00 0.00 0.00 70 1017.4
20260831173107 89 0 0.0 6.0 0.00 0.00 0.00 70 1017.4
20260831171607 89 0 0.0 5.0 0.00 0.00 0.00 70 1017.5
20260831170106 88 218 0.0 10.0 0.00 0.00 0.00 70 1017.9
20260831164614 88 181 0.0 7.0 0.00 0.00 0.00 72 1017.8
20260831163107 88 0 0.0 3.0 0.00 0.00 0.00 74 1018.1
20260831161613 87 0 0.0 7.0 0.00 0.00 0.00 74 1018.3
20260831160111 87 269 0.0 4.0 0.00 0.00 0.00 76 1018.3
20260831154630 86 195 0.0 6.0 0.00 0.00 0.00 75 1018.3
20260831153109 85 0 0.0 7.0 0.00 0.00 0.00 76 1018.2
20260831151608 85 0 0.0 1.0 0.00 0.00 0.00 77 1018.2
20260831150108 84 0 0.0 1.0 0.00 0.00 0.00 80 1018.1
20260831144607 83 0 0.0 2.0 0.00 0.00 0.00 82 1018.0
20260831143107 82 0 0.0 0.0 0.00 0.00 0.00 82 1018.1
20260831141605 81 0 0.0 1.0 0.00 0.00 0.00 84 1017.9
20260831140106 78 0 0.0 3.0 0.00 0.00 0.00 90 1017.8
20260831134608 75 0 0.0 0.0 0.00 0.00 0.00 100 1017.7
20260831133106 73 0 0.0 0.0 0.00 0.00 0.00 100 1017.7
20260831131604 71 0 0.0 0.0 0.00 0.00 0.00 100 1017.7
20260831130114 70 0 0.0 0.0 0.00 0.00 0.00 100 1017.6
20260831124612 68 0 0.0 0.0 0.00 0.00 0.00 99 1017.5
20260831123105 68 0 0.0 0.0 0.00 0.00 0.00 99 1017.4
20260831121601 67 0 0.0 0.0 0.00 0.00 0.00 99 1017.3
20260831120113 67 0 0.0 0.0 0.00 0.00 0.00 99 1017.1
20260831114609 67 0 0.0 0.0 0.00 0.00 0.00 99 1017.0
20260831113107 66 0 0.0 0.0 0.00 0.00 0.00 99 1016.9
20260831111607 67 0 0.0 0.0 0.00 0.00 0.00 99 1016.7
20260831110107 67 0 0.0 0.0 0.00 0.00 0.00 99 1016.7
20260831104604 67 0 0.0 0.0 0.00 0.00 0.00 99 1016.4
20260831103109 67 0 0.0 0.0 0.00 0.00 0.00 99 1016.5
20260831101605 67 0 0.0 0.0 0.00 0.00 0.00 99 1016.2
20260831100127 67 0 0.0 0.0 0.00 0.00 0.00 99 1016.1
20260831094607 67 0 0.0 0.0 0.00 0.00 0.00 99 1016.1
20260831093128 67 0 0.0 0.0 0.00 0.00 0.00 99 1016.1
20260831091609 67 0 0.0 0.0 0.00 0.00 0.00 99 1016.1
20260831090138 67 0 0.0 0.0 0.00 0.00 0.00 99 1016.3
20260831084604 67 0 0.0 0.0 0.00 0.00 0.00 99 1016.1
20260831083111 67 0 0.0 0.0 0.00 0.00 0.00 99 1016.0
20260831081610 67 0 0.0 0.0 0.00 0.00 0.00 98 1015.8
20260831080130 68 0 0.0 0.0 0.00 0.00 0.00 98 1015.6
20260831074608 68 0 0.0 0.0 0.00 0.00 0.00 99 1015.4
20260831073112 68 0 0.0 0.0 0.00 0.00 0.00 99 1015.6
20260831071605 68 0 0.0 0.0 0.00 0.00 0.00 98 1015.8
20260831070108 68 0 0.0 0.0 0.00 0.00 0.00 99 1015.9
20260831064605 68 0 0.0 0.0 0.00 0.00 0.00 98 1015.9
20260831063114 68 0 0.0 0.0 0.00 0.00 0.00 98 1016.1
20260831061605 69 0 0.0 0.0 0.00 0.00 0.00 98 1016.1
20260831060112 69 0 0.0 0.0 0.00 0.00 0.00 98 1016.0
20260831054611 69 0 0.0 0.0 0.00 0.00 0.00 98 1016.0
20260831053132 69 0 0.0 0.0 0.00 0.00 0.00 98 1016.0
20260831051604 69 0 0.0 0.0 0.00 0.00 0.00 98 1015.9
20260831050111 69 0 0.0 0.0 0.00 0.00 0.00 98 1016.0
20260831044645 69 0 0.0 0.0 0.00 0.00 0.00 98 1016.1
20260831043107 70 0 0.0 0.0 0.00 0.00 0.00 97 1016.1
20260831041614 70 0 0.0 0.0 0.00 0.00 0.00 98 1015.9
20260831040108 70 0 0.0 0.0 0.00 0.00 0.00 97 1016.0
20260831034609 70 0 0.0 0.0 0.00 0.00 0.00 97 1015.9
20260831033111 70 0 0.0 0.0 0.00 0.00 0.00 96 1016.0
20260831031608 71 0 0.0 0.0 0.00 0.00 0.00 96 1016.0
20260831030107 71 0 0.0 0.0 0.00 0.00 0.00 96 1016.0
20260831024611 71 0 0.0 0.0 0.00 0.00 0.00 95 1016.1
20260831023107 71 0 0.0 0.0 0.00 0.00 0.00 95 1015.8
20260831021606 71 0 0.0 0.0 0.00 0.00 0.00 94 1015.7
20260831020110 72 0 0.0 0.0 0.00 0.00 0.00 93 1015.7
20260831014607 72 0 0.0 0.0 0.00 0.00 0.00 93 1015.3
20260831013110 72 0 0.0 0.0 0.00 0.00 0.00 92 1015.2
20260831011608 73 0 0.0 0.0 0.00 0.00 0.00 91 1015.2
20260831010120 74 0 0.0 0.0 0.00 0.00 0.00 90 1015.2